OAL638 SABE-SANU

Flight info

Callsign OAL638
Flight time 1h 35m
Altitude 36000
Route OBLOC DCT URUNA P181 NEA L14 ADINO DCT EVURA UN873 SOTEX UZ223 BEXAL UN866 KONBA
Aircraft B738/M-VGDW/C

Departure

Time 2026-05-07 11:22
Airport Aeroparque Jorge Newbery (SABE)

Arrival

Time 2026-05-07 12:57
Airport Domingo Faustino Sarmiento Airport (SANU)
Time Latitude Longitude Altitude Speed Heading
2026-05-07 11:03 -34.55766 -58.41527 26 ft 0 kts 211°
2026-05-07 11:09 -34.55759 -58.41522 29 ft 3 kts 211°
2026-05-07 11:09 -34.55741 -58.41509 28 ft 3 kts 221°
2026-05-07 11:09 -34.55732 -58.41488 31 ft 3 kts 271°
2026-05-07 11:09 -34.55735 -58.41469 30 ft 3 kts 299°
2026-05-07 11:10 -34.55732 -58.41475 30 ft 0 kts 306°
2026-05-07 11:10 -34.55731 -58.41476 30 ft 0 kts 308°
2026-05-07 11:14 -34.55722 -58.41495 28 ft 7 kts 291°
2026-05-07 11:14 -34.55750 -58.41570 26 ft 11 kts 215°
2026-05-07 11:15 -34.55779 -58.41632 25 ft 8 kts 281°
2026-05-07 11:15 -34.55757 -58.41690 27 ft 7 kts 297°
2026-05-07 11:15 -34.55734 -58.41744 26 ft 7 kts 301°
2026-05-07 11:15 -34.55696 -58.41817 29 ft 13 kts 304°
2026-05-07 11:16 -34.55639 -58.41919 26 ft 16 kts 304°
2026-05-07 11:16 -34.55582 -58.42020 27 ft 16 kts 304°
2026-05-07 11:16 -34.55511 -58.42137 27 ft 17 kts 307°
2026-05-07 11:16 -34.55441 -58.42250 28 ft 16 kts 307°
2026-05-07 11:17 -34.55392 -58.42329 27 ft 9 kts 307°
2026-05-07 11:17 -34.55366 -58.42378 27 ft 0 kts 291°
2026-05-07 11:20 -34.55366 -58.42379 27 ft 1 kts 291°
2026-05-07 11:20 -34.55358 -58.42415 27 ft 11 kts 277°
2026-05-07 11:20 -34.55399 -58.42482 28 ft 7 kts 172°
2026-05-07 11:21 -34.55435 -58.42440 28 ft 7 kts 125°
2026-05-07 11:21 -34.55497 -58.42328 29 ft 48 kts 123°
2026-05-07 11:21 -34.55859 -58.41681 24 ft 135 kts 124°
2026-05-07 11:21 -34.56526 -58.40515 247 ft 192 kts 126°
2026-05-07 11:22 -34.57289 -58.39099 1090 ft 213 kts 124°
2026-05-07 11:22 -34.57519 -58.37341 2195 ft 222 kts 85°
2026-05-07 11:22 -34.56750 -58.35567 2616 ft 260 kts 46°
2026-05-07 11:22 -34.55084 -58.34513 2976 ft 282 kts
2026-05-07 11:23 -34.53165 -58.34815 3844 ft 279 kts 333°
2026-05-07 11:23 -34.51704 -58.36308 4724 ft 278 kts 300°
2026-05-07 11:23 -34.51022 -58.38493 5437 ft 282 kts 279°
2026-05-07 11:23 -34.50635 -58.40848 6246 ft 286 kts 279°
2026-05-07 11:24 -34.50246 -58.43203 7213 ft 279 kts 280°
2026-05-07 11:24 -34.49837 -58.45462 8310 ft 273 kts 282°
2026-05-07 11:24 -34.49301 -58.47688 9168 ft 276 kts 288°
2026-05-07 11:24 -34.48582 -58.49854 9951 ft 278 kts 294°
2026-05-07 11:25 -34.47686 -58.52023 10248 ft 301 kts 297°
2026-05-07 11:25 -34.46573 -58.54305 10436 ft 325 kts 301°
2026-05-07 11:25 -34.45304 -58.56627 10612 ft 346 kts 303°
2026-05-07 11:25 -34.43867 -58.59050 10959 ft 359 kts 305°
2026-05-07 11:26 -34.42348 -58.61474 11688 ft 360 kts 306°
2026-05-07 11:26 -34.40807 -58.63849 12547 ft 357 kts 307°
2026-05-07 11:26 -34.39253 -58.66198 13367 ft 357 kts 307°
2026-05-07 11:26 -34.37694 -58.68529 14051 ft 357 kts 308°
2026-05-07 11:27 -34.36127 -58.70859 14750 ft 356 kts 308°
2026-05-07 11:27 -34.34567 -58.73172 15461 ft 355 kts 309°
2026-05-07 11:27 -34.33007 -58.75481 16138 ft 354 kts 309°
2026-05-07 11:27 -34.31448 -58.77787 16801 ft 354 kts 310°
2026-05-07 11:28 -34.29889 -58.80093 17462 ft 354 kts 310°
2026-05-07 11:28 -34.28331 -58.82395 18071 ft 354 kts 311°
2026-05-07 11:28 -34.26770 -58.84701 18569 ft 355 kts 311°
2026-05-07 11:28 -34.25203 -58.87014 19031 ft 357 kts 311°
2026-05-07 11:29 -34.23628 -58.89337 19519 ft 358 kts 311°
2026-05-07 11:29 -34.22047 -58.91668 19989 ft 360 kts 311°
2026-05-07 11:29 -34.20456 -58.94011 20478 ft 361 kts 311°
2026-05-07 11:29 -34.18859 -58.96362 20950 ft 362 kts 311°
2026-05-07 11:30 -34.17261 -58.98714 21406 ft 364 kts 311°
2026-05-07 11:30 -34.15653 -59.01079 21842 ft 365 kts 311°
2026-05-07 11:30 -34.14039 -59.03452 22280 ft 367 kts 311°
2026-05-07 11:30 -34.12411 -59.05843 22683 ft 369 kts 311°
2026-05-07 11:31 -34.10781 -59.08236 23088 ft 370 kts 311°
2026-05-07 11:31 -34.09161 -59.10613 23430 ft 372 kts 311°
2026-05-07 11:31 -34.07510 -59.13032 23731 ft 374 kts 311°
2026-05-07 11:31 -34.05857 -59.15451 24057 ft 375 kts 311°
2026-05-07 11:32 -34.02498 -59.20305 24688 ft 378 kts 311°
2026-05-07 11:32 -34.00800 -59.22746 24988 ft 380 kts 311°
2026-05-07 11:32 -33.99099 -59.25189 25283 ft 381 kts 311°
2026-05-07 11:33 -33.97392 -59.27643 25578 ft 383 kts 311°
2026-05-07 11:33 -33.95678 -59.30104 25855 ft 384 kts 312°
2026-05-07 11:33 -33.93953 -59.32582 26148 ft 386 kts 312°
2026-05-07 11:33 -33.92228 -59.35060 26417 ft 387 kts 312°
2026-05-07 11:34 -33.90493 -59.37549 26678 ft 389 kts 312°
2026-05-07 11:34 -33.88749 -59.40051 26922 ft 390 kts 312°
2026-05-07 11:34 -33.87001 -59.42557 27164 ft 392 kts 312°
2026-05-07 11:34 -33.85245 -59.45072 27404 ft 393 kts 312°
2026-05-07 11:35 -33.83486 -59.47590 27683 ft 393 kts 312°
2026-05-07 11:35 -33.81725 -59.50110 28031 ft 392 kts 312°
2026-05-07 11:35 -33.79973 -59.52615 28388 ft 390 kts 312°
2026-05-07 11:35 -33.78222 -59.55116 28731 ft 390 kts 312°
2026-05-07 11:36 -33.76503 -59.57570 29065 ft 389 kts 312°
2026-05-07 11:36 -33.74763 -59.60053 29430 ft 388 kts 312°
2026-05-07 11:36 -33.73029 -59.62527 29801 ft 387 kts 313°
2026-05-07 11:36 -33.71296 -59.64995 30096 ft 386 kts 313°
2026-05-07 11:37 -33.69562 -59.67462 30354 ft 386 kts 313°
2026-05-07 11:37 -33.67826 -59.69926 30613 ft 386 kts 313°
2026-05-07 11:37 -33.66094 -59.72382 30890 ft 386 kts 313°
2026-05-07 11:37 -33.64360 -59.74840 31168 ft 385 kts 313°
2026-05-07 11:38 -33.62629 -59.77293 31434 ft 385 kts 313°
2026-05-07 11:38 -33.60896 -59.79747 31694 ft 385 kts 314°
2026-05-07 11:38 -33.59167 -59.82193 31965 ft 384 kts 314°
2026-05-07 11:38 -33.57438 -59.84640 32232 ft 384 kts 314°
2026-05-07 11:39 -33.55732 -59.87051 32490 ft 384 kts 314°
2026-05-07 11:39 -33.54005 -59.89491 32738 ft 384 kts 314°
2026-05-07 11:39 -33.52281 -59.91926 33000 ft 383 kts 314°
2026-05-07 11:39 -33.50555 -59.94361 33269 ft 383 kts 314°
2026-05-07 11:40 -33.48831 -59.96791 33515 ft 382 kts 314°
2026-05-07 11:40 -33.47107 -59.99220 33759 ft 382 kts 314°
2026-05-07 11:40 -33.45391 -60.01638 33974 ft 382 kts 314°
2026-05-07 11:40 -33.43668 -60.04061 34167 ft 382 kts 314°
2026-05-07 11:41 -33.41946 -60.06483 34358 ft 382 kts 314°
2026-05-07 11:41 -33.40222 -60.08906 34555 ft 382 kts 314°
2026-05-07 11:41 -33.38499 -60.11326 34759 ft 381 kts 314°
2026-05-07 11:41 -33.36781 -60.13737 35017 ft 380 kts 314°
2026-05-07 11:42 -33.35065 -60.16144 35251 ft 379 kts 314°
2026-05-07 11:42 -33.33354 -60.18542 35430 ft 380 kts 314°
2026-05-07 11:42 -33.31635 -60.20949 35601 ft 380 kts 314°
2026-05-07 11:43 -33.28192 -60.25765 35702 ft 381 kts 314°
2026-05-07 11:43 -33.24749 -60.30576 35720 ft 380 kts 314°
2026-05-07 11:44 -33.21316 -60.35368 35724 ft 380 kts 313°
2026-05-07 11:44 -33.17897 -60.40133 35722 ft 379 kts 313°
2026-05-07 11:45 -33.14463 -60.44913 35724 ft 379 kts 313°
2026-05-07 11:45 -33.11032 -60.49682 35730 ft 378 kts 313°
2026-05-07 11:46 -33.07604 -60.54442 35728 ft 378 kts 313°
2026-05-07 11:46 -33.04176 -60.59195 35730 ft 378 kts 313°
2026-05-07 11:47 -33.00743 -60.63948 35725 ft 378 kts 313°
2026-05-07 11:47 -32.97315 -60.68691 35721 ft 378 kts 313°
2026-05-07 11:48 -32.93878 -60.73441 35721 ft 378 kts 311°
2026-05-07 11:48 -32.91142 -60.78816 35728 ft 383 kts 299°
2026-05-07 11:49 -32.89413 -60.84822 35722 ft 392 kts 287°
2026-05-07 11:49 -32.88458 -60.91195 35731 ft 391 kts 287°
2026-05-07 11:50 -32.87499 -60.97540 35733 ft 388 kts 287°
2026-05-07 11:50 -32.86531 -61.03848 35735 ft 386 kts 287°
2026-05-07 11:51 -32.85560 -61.10111 35743 ft 384 kts 287°
2026-05-07 11:51 -32.84588 -61.16350 35755 ft 382 kts 287°
2026-05-07 11:52 -32.83618 -61.22551 35760 ft 381 kts 287°
2026-05-07 11:52 -32.82650 -61.28726 35762 ft 379 kts 287°
2026-05-07 11:53 -32.81680 -61.34886 35764 ft 379 kts 287°
2026-05-07 11:53 -32.80709 -61.41034 35770 ft 378 kts 287°
2026-05-07 11:54 -32.79741 -61.47143 35776 ft 379 kts 287°
2026-05-07 11:54 -32.78763 -61.53295 35774 ft 379 kts 287°
2026-05-07 11:55 -32.77781 -61.59454 35775 ft 380 kts 287°
2026-05-07 11:55 -32.76793 -61.65627 35781 ft 380 kts 287°
2026-05-07 11:56 -32.75801 -61.71809 35787 ft 381 kts 287°
2026-05-07 11:56 -32.74804 -61.78001 35784 ft 382 kts 287°
2026-05-07 11:57 -32.73802 -61.84202 35789 ft 383 kts 287°
2026-05-07 11:57 -32.72795 -61.90416 35795 ft 383 kts 287°
2026-05-07 11:58 -32.71784 -61.96638 35795 ft 384 kts 287°
2026-05-07 11:58 -32.70770 -62.02857 35794 ft 384 kts 287°
2026-05-07 11:59 -32.69752 -62.09083 35799 ft 384 kts 287°
2026-05-07 11:59 -32.68729 -62.15316 35799 ft 385 kts 287°
2026-05-07 12:00 -32.67647 -62.21534 35804 ft 384 kts 288°
2026-05-07 12:00 -32.66522 -62.27690 35808 ft 384 kts 288°
2026-05-07 12:01 -32.65388 -62.33890 35815 ft 385 kts 288°
2026-05-07 12:01 -32.64254 -62.40107 35819 ft 385 kts 288°
2026-05-07 12:02 -32.63119 -62.46328 35818 ft 386 kts 287°
2026-05-07 12:02 -32.61981 -62.52553 35824 ft 386 kts 287°
2026-05-07 12:03 -32.60840 -62.58782 35829 ft 387 kts 287°
2026-05-07 12:03 -32.59693 -62.65022 35829 ft 387 kts 287°
2026-05-07 12:04 -32.58542 -62.71265 35828 ft 388 kts 287°
2026-05-07 12:04 -32.57387 -62.77508 35834 ft 388 kts 287°
2026-05-07 12:05 -32.56229 -62.83753 35837 ft 388 kts 287°
2026-05-07 12:05 -32.55068 -62.89995 35843 ft 387 kts 287°
2026-05-07 12:06 -32.53914 -62.96183 35853 ft 387 kts 287°
2026-05-07 12:06 -32.52748 -63.02414 35853 ft 388 kts 287°
2026-05-07 12:07 -32.51578 -63.08651 35855 ft 388 kts 287°
2026-05-07 12:07 -32.50403 -63.14896 35855 ft 389 kts 287°
2026-05-07 12:08 -32.49222 -63.21154 35855 ft 389 kts 286°
2026-05-07 12:08 -32.48036 -63.27419 35863 ft 390 kts 286°
2026-05-07 12:09 -32.47044 -63.32648 35861 ft 391 kts 286°
2026-05-07 12:09 -32.45847 -63.38942 35866 ft 392 kts 286°
2026-05-07 12:10 -32.44644 -63.45250 35867 ft 393 kts 286°
2026-05-07 12:10 -32.43436 -63.51566 35874 ft 394 kts 286°
2026-05-07 12:11 -32.42218 -63.57904 35874 ft 395 kts 285°
2026-05-07 12:11 -32.40993 -63.64261 35878 ft 396 kts 285°
2026-05-07 12:12 -32.39761 -63.70637 35877 ft 397 kts 285°
2026-05-07 12:12 -32.38533 -63.76975 35881 ft 398 kts 285°
2026-05-07 12:13 -32.37291 -63.83370 35882 ft 399 kts 285°
2026-05-07 12:13 -32.36043 -63.89776 35885 ft 400 kts 285°
2026-05-07 12:14 -32.34791 -63.96185 35885 ft 400 kts 285°
2026-05-07 12:14 -32.33535 -64.02598 35888 ft 401 kts 285°
2026-05-07 12:15 -32.32272 -64.09027 35890 ft 401 kts 285°
2026-05-07 12:15 -32.31013 -64.15414 35894 ft 402 kts 285°
2026-05-07 12:16 -32.29740 -64.21859 35894 ft 402 kts 284°
2026-05-07 12:16 -32.28464 -64.28296 35894 ft 403 kts 284°
2026-05-07 12:17 -32.27184 -64.34740 35899 ft 403 kts 284°
2026-05-07 12:17 -32.25898 -64.41192 35896 ft 404 kts 284°
2026-05-07 12:18 -32.24605 -64.47660 35902 ft 405 kts 284°
2026-05-07 12:18 -32.23307 -64.54141 35901 ft 406 kts 284°
2026-05-07 12:19 -32.22002 -64.60633 35909 ft 407 kts 284°
2026-05-07 12:19 -32.20697 -64.67106 35910 ft 408 kts 284°
2026-05-07 12:20 -32.19376 -64.73642 35914 ft 410 kts 284°
2026-05-07 12:20 -32.18047 -64.80197 35917 ft 411 kts 284°
2026-05-07 12:21 -32.16712 -64.86766 35916 ft 412 kts 284°
2026-05-07 12:21 -32.15367 -64.93365 35936 ft 414 kts 283°
2026-05-07 12:22 -32.14015 -64.99979 35964 ft 416 kts 283°
2026-05-07 12:22 -32.12653 -65.06623 35964 ft 418 kts 283°
2026-05-07 12:23 -32.11280 -65.13303 35960 ft 419 kts 283°
2026-05-07 12:23 -32.09899 -65.20002 35970 ft 421 kts 283°
2026-05-07 12:24 -32.08513 -65.26708 35966 ft 421 kts 283°
2026-05-07 12:24 -32.07120 -65.33426 35956 ft 422 kts 283°
2026-05-07 12:25 -32.05725 -65.40141 35954 ft 422 kts 283°
2026-05-07 12:25 -32.04324 -65.46863 35956 ft 423 kts 283°
2026-05-07 12:26 -32.02925 -65.53597 35953 ft 423 kts 283°
2026-05-07 12:26 -32.01539 -65.60279 35941 ft 423 kts 282°
2026-05-07 12:27 -32.00138 -65.67011 35941 ft 423 kts 282°
2026-05-07 12:27 -31.98734 -65.73737 35949 ft 422 kts 282°
2026-05-07 12:28 -31.97327 -65.80460 35944 ft 423 kts 282°
2026-05-07 12:28 -31.95917 -65.87177 35942 ft 423 kts 282°
2026-05-07 12:29 -31.94504 -65.93895 35944 ft 423 kts 282°
2026-05-07 12:29 -31.93084 -66.00616 35944 ft 423 kts 282°
2026-05-07 12:30 -31.91648 -66.07336 35946 ft 423 kts 282°
2026-05-07 12:30 -31.90207 -66.14048 35949 ft 424 kts 282°
2026-05-07 12:31 -31.88761 -66.20769 35953 ft 424 kts 282°
2026-05-07 12:31 -31.87321 -66.27450 35953 ft 424 kts 281°
2026-05-07 12:32 -31.85867 -66.34182 35959 ft 424 kts 281°
2026-05-07 12:32 -31.84403 -66.40945 35446 ft 432 kts 281°
2026-05-07 12:32 -31.83660 -66.44367 34845 ft 431 kts 281°
2026-05-07 12:33 -31.82172 -66.51207 33626 ft 431 kts 281°
2026-05-07 12:33 -31.81431 -66.54599 33106 ft 426 kts 281°
2026-05-07 12:33 -31.80696 -66.57963 32609 ft 422 kts 281°
2026-05-07 12:34 -31.79969 -66.61289 32126 ft 418 kts 281°
2026-05-07 12:34 -31.79248 -66.64588 31662 ft 414 kts 281°
2026-05-07 12:34 -31.78535 -66.67841 31211 ft 410 kts 281°
2026-05-07 12:34 -31.77834 -66.71072 30763 ft 406 kts 279°
2026-05-07 12:35 -31.77333 -66.74307 30316 ft 400 kts 275°
2026-05-07 12:35 -31.76953 -66.77535 29851 ft 396 kts 274°
2026-05-07 12:35 -31.76601 -66.80692 29339 ft 393 kts 274°
2026-05-07 12:35 -31.76247 -66.83859 28889 ft 388 kts 274°
2026-05-07 12:36 -31.75891 -66.86980 28436 ft 383 kts 275°
2026-05-07 12:36 -31.75534 -66.90056 27998 ft 378 kts 275°
2026-05-07 12:36 -31.75175 -66.93095 27561 ft 373 kts 275°
2026-05-07 12:36 -31.74816 -66.96105 27132 ft 369 kts 275°
2026-05-07 12:37 -31.74459 -66.99074 26697 ft 365 kts 276°
2026-05-07 12:37 -31.74104 -67.02016 26289 ft 361 kts 276°
2026-05-07 12:37 -31.73751 -67.04931 25863 ft 358 kts 276°
2026-05-07 12:37 -31.73402 -67.07812 25452 ft 355 kts 276°
2026-05-07 12:38 -31.73056 -67.10663 25044 ft 351 kts 276°
2026-05-07 12:38 -31.72711 -67.13497 24642 ft 348 kts 277°
2026-05-07 12:38 -31.72369 -67.16298 24246 ft 345 kts 277°
2026-05-07 12:38 -31.72034 -67.19038 23858 ft 342 kts 277°
2026-05-07 12:39 -31.71696 -67.21796 23428 ft 340 kts 277°
2026-05-07 12:39 -31.71360 -67.24530 22967 ft 337 kts 277°
2026-05-07 12:39 -31.71027 -67.27237 22576 ft 333 kts 277°
2026-05-07 12:39 -31.70697 -67.29913 21969 ft 334 kts 276°
2026-05-07 12:40 -31.70363 -67.32619 21453 ft 334 kts 276°
2026-05-07 12:40 -31.70029 -67.35319 20974 ft 333 kts 276°
2026-05-07 12:40 -31.69698 -67.37997 20562 ft 330 kts 276°
2026-05-07 12:40 -31.69368 -67.40653 20147 ft 328 kts 276°
2026-05-07 12:41 -31.69040 -67.43289 19755 ft 325 kts 275°
2026-05-07 12:41 -31.68714 -67.45909 19357 ft 323 kts 275°
2026-05-07 12:41 -31.68389 -67.48511 18959 ft 321 kts 275°
2026-05-07 12:41 -31.68066 -67.51100 18580 ft 320 kts 275°
2026-05-07 12:42 -31.67743 -67.53680 18171 ft 319 kts 275°
2026-05-07 12:42 -31.67423 -67.56243 17730 ft 317 kts 275°
2026-05-07 12:42 -31.67103 -67.58794 17325 ft 315 kts 275°
2026-05-07 12:42 -31.66784 -67.61325 16930 ft 312 kts 275°
2026-05-07 12:43 -31.66468 -67.63841 16549 ft 310 kts 275°
2026-05-07 12:43 -31.66153 -67.66338 16166 ft 308 kts 275°
2026-05-07 12:43 -31.65840 -67.68811 15792 ft 306 kts 275°
2026-05-07 12:43 -31.65529 -67.71276 15412 ft 304 kts 275°
2026-05-07 12:44 -31.65219 -67.73725 15043 ft 302 kts 275°
2026-05-07 12:44 -31.64910 -67.76157 14678 ft 300 kts 275°
2026-05-07 12:44 -31.64604 -67.78573 14315 ft 299 kts 275°
2026-05-07 12:44 -31.64298 -67.80975 13952 ft 297 kts 276°
2026-05-07 12:45 -31.63992 -67.83368 13565 ft 295 kts 275°
2026-05-07 12:45 -31.63666 -67.85733 13355 ft 289 kts 277°
2026-05-07 12:45 -31.63308 -67.88051 13045 ft 289 kts 277°
2026-05-07 12:45 -31.62942 -67.90377 12704 ft 292 kts 277°
2026-05-07 12:46 -31.62571 -67.92741 12342 ft 300 kts 277°
2026-05-07 12:46 -31.62192 -67.95193 11974 ft 308 kts 278°
2026-05-07 12:46 -31.61807 -67.97661 11584 ft 308 kts 278°
2026-05-07 12:46 -31.61416 -68.00125 11205 ft 306 kts 278°
2026-05-07 12:47 -31.61034 -68.02577 10821 ft 305 kts 278°
2026-05-07 12:47 -31.60654 -68.05020 10563 ft 301 kts 278°
2026-05-07 12:47 -31.60286 -68.07368 10421 ft 293 kts 278°
2026-05-07 12:47 -31.59923 -68.09688 10284 ft 285 kts 278°
2026-05-07 12:48 -31.59280 -68.11861 10122 ft 283 kts 301°
2026-05-07 12:48 -31.57998 -68.13576 10011 ft 279 kts 314°
2026-05-07 12:48 -31.56514 -68.15051 9699 ft 280 kts 317°
2026-05-07 12:48 -31.54983 -68.16470 9407 ft 280 kts 318°
2026-05-07 12:49 -31.53461 -68.17882 9135 ft 278 kts 317°
2026-05-07 12:49 -31.51953 -68.19303 8819 ft 278 kts 317°
2026-05-07 12:49 -31.50454 -68.20732 8533 ft 278 kts 316°
2026-05-07 12:49 -31.48954 -68.22179 8246 ft 280 kts 316°
2026-05-07 12:50 -31.47451 -68.23649 7914 ft 283 kts 317°
2026-05-07 12:50 -31.45922 -68.25101 7572 ft 284 kts 318°
2026-05-07 12:50 -31.44386 -68.26563 7253 ft 285 kts 318°
2026-05-07 12:50 -31.42860 -68.28022 7095 ft 279 kts 318°
2026-05-07 12:51 -31.41370 -68.29446 6962 ft 274 kts 318°
2026-05-07 12:51 -31.39914 -68.30839 6836 ft 268 kts 319°
2026-05-07 12:51 -31.38501 -68.32238 6630 ft 265 kts 313°
2026-05-07 12:51 -31.37209 -68.33781 6383 ft 265 kts 310°
2026-05-07 12:52 -31.35985 -68.35370 6160 ft 259 kts 301°
2026-05-07 12:52 -31.35422 -68.37238 6021 ft 235 kts 261°
2026-05-07 12:52 -31.35899 -68.38935 5827 ft 215 kts 227°
2026-05-07 12:52 -31.36970 -68.40066 5617 ft 209 kts 207°
2026-05-07 12:53 -31.38277 -68.40741 5378 ft 201 kts 195°
2026-05-07 12:53 -31.39580 -68.41241 5151 ft 194 kts 194°
2026-05-07 12:53 -31.40840 -68.41716 4890 ft 186 kts 192°
2026-05-07 12:53 -31.42081 -68.41907 4654 ft 174 kts 179°
2026-05-07 12:54 -31.43236 -68.41949 4441 ft 159 kts 178°
2026-05-07 12:54 -31.44313 -68.41954 4218 ft 150 kts 176°
2026-05-07 12:54 -31.45324 -68.41930 4029 ft 150 kts 177°
2026-05-07 12:54 -31.46521 -68.41933 3824 ft 182 kts 177°
2026-05-07 12:55 -31.47748 -68.41932 3562 ft 168 kts 179°
2026-05-07 12:55 -31.48844 -68.41918 3349 ft 149 kts 178°
2026-05-07 12:55 -31.49809 -68.41902 3145 ft 131 kts 179°
2026-05-07 12:55 -31.50722 -68.41890 2998 ft 141 kts 180°
2026-05-07 12:56 -31.51714 -68.41887 2793 ft 141 kts 180°
2026-05-07 12:56 -31.52686 -68.41878 2648 ft 139 kts 181°
2026-05-07 12:56 -31.53668 -68.41869 2456 ft 144 kts 181°
2026-05-07 12:56 -31.54656 -68.41858 2259 ft 138 kts 180°
2026-05-07 12:57 -31.55612 -68.41847 2046 ft 139 kts 180°
2026-05-07 12:57 -31.56557 -68.41839 1955 ft 125 kts 179°
2026-05-07 12:57 -31.57211 -68.41831 1951 ft 58 kts 179°
2026-05-07 12:57 -31.57452 -68.41829 1951 ft 23 kts 179°
2026-05-07 12:58 -31.57499 -68.41885 1951 ft 11 kts 281°
2026-05-07 12:58 -31.57475 -68.41933 1951 ft 0 kts 313°
2026-05-07 12:58 -31.57474 -68.41934 1951 ft 3 kts 314°
2026-05-07 12:58 -31.57441 -68.41974 1952 ft 14 kts 314°
2026-05-07 12:59 -31.57368 -68.42053 1952 ft 14 kts 317°
2026-05-07 12:59 -31.57302 -68.42131 1952 ft 13 kts 314°
2026-05-07 12:59 -31.57224 -68.42161 1952 ft 13 kts 23°
2026-05-07 12:59 -31.57156 -68.42172 1953 ft 8 kts 311°
2026-05-07 13:00 -31.57151 -68.42179 1953 ft 0 kts 310°